Location: 22
(39.7117°N, 89.5929°W)
Time: 03:02:41
(UTC-05:00)

BlueWalker 3 - Visible Passes

Search period start: 24 September 2023 00:00
Search period end: 04 October 2023 00:00
Orbit: 492 x 508 km, 53.2° (Epoch: 23 September)

Date Brightness Start Highest point End Pass type
(mag) Time Alt. Az. Time Alt. Az. Time Alt. Az.
24 Sep 4.6 05:23:07 10° NNW 05:24:10 11° N 05:25:13 10° NNE visible
25 Sep 4.6 05:01:37 10° NNW 05:02:40 11° N 05:03:43 10° NNE visible
26 Sep 4.7 04:40:29 10° N 04:41:10 11° N 04:42:12 10° NNE visible
26 Sep 4.3 06:18:06 10° NNW 06:20:54 19° NNE 06:23:41 10° ENE visible
27 Sep 4.9 04:19:53 11° N 04:19:53 11° N 04:20:41 10° NNE visible
27 Sep 4.3 05:56:34 10° NNW 05:59:22 19° NNE 06:02:10 10° ENE visible
28 Sep 4.3 05:35:02 10° NNW 05:37:50 19° NNE 05:40:38 10° ENE visible
29 Sep 4.3 05:13:28 10° NNW 05:16:16 19° NNE 05:19:05 10° ENE visible
30 Sep 4.3 04:53:01 15° N 04:54:42 19° NNE 04:57:31 10° ENE visible
01 Oct 4.2 04:32:41 19° NNE 04:33:07 19° NNE 04:35:56 10° ENE visible
01 Oct 1.9 06:08:09 10° NW 06:12:01 89° NE 06:15:53 10° SE visible
02 Oct 4.6 04:12:30 17° NE 04:12:30 17° NE 04:14:21 10° ENE visible
02 Oct 1.9 05:47:09 14° NW 05:50:26 89° ENE 05:54:16 10° SE visible
03 Oct 5.3 03:52:25 11° ENE 03:52:25 11° ENE 03:52:44 10° ENE visible
03 Oct 1.8 05:27:06 32° NW 05:28:48 90° NE 05:32:40 10° SE visible
